TimeEET,TemperatureF,Dew PointF,Humidity,Sea Level PressureIn,VisibilityMPH,Wind Direction,Wind SpeedMPH,Gust SpeedMPH,PrecipitationIn,Events,Conditions,WindDirDegrees,DateUTC
12:00 AM,62.6,48.2,59,30.01,-9999.0,Calm,Calm,-,N/A,,Clear,0,2012-11-29 22:00:00
1:00 AM,64.4,50.0,59,30.01,-9999.0,Calm,Calm,-,N/A,,Clear,0,2012-11-29 23:00:00
2:00 AM,63,49,51,30.02,6,WNW,9.2,,,,,300,2012-11-30 00:00:00
2:00 AM,62.6,50.0,63,30.01,-9999.0,WNW,9.2,-,N/A,,Clear,300,2012-11-30 00:00:00
3:00 AM,62.6,48.2,59,30.01,-9999.0,WNW,13.8,-,N/A,,Clear,290,2012-11-30 01:00:00
4:00 AM,60.8,46.4,59,30.01,-9999.0,WNW,11.5,-,N/A,,Clear,290,2012-11-30 02:00:00
5:00 AM,59.0,42.8,55,30.01,-9999.0,WSW,8.1,-,N/A,,Clear,250,2012-11-30 03:00:00
6:00 AM,59.0,42.8,55,30.01,-9999.0,WSW,4.6,-,N/A,,Clear,240,2012-11-30 04:00:00
7:00 AM,59.0,41.0,51,30.04,-9999.0,WSW,4.6,-,N/A,,Clear,250,2012-11-30 05:00:00
8:00 AM,64,42,33,30.08,6,West,8.1,,,,Partly Cloudy,260,2012-11-30 06:00:00
8:00 AM,64.4,41.0,42,30.06,-9999.0,West,8.1,-,N/A,,Clear,260,2012-11-30 06:00:00
9:00 AM,73.4,44.6,36,30.06,-9999.0,WNW,6.9,-,N/A,,Clear,300,2012-11-30 07:00:00
10:00 AM,77.0,59.0,54,30.06,-9999.0,North,4.6,-,N/A,,Clear,350,2012-11-30 08:00:00
11:00 AM,78.8,59.0,51,30.06,-9999.0,North,2.3,-,N/A,,Clear,350,2012-11-30 09:00:00
12:00 PM,82.4,57.2,42,30.04,-9999.0,ESE,2.3,-,N/A,,Clear,120,2012-11-30 10:00:00
1:00 PM,80.6,62.6,54,30.01,-9999.0,ESE,4.6,-,N/A,,Clear,120,2012-11-30 11:00:00
2:00 PM,80,64,48,30.01,6,ESE,5.8,,,,Clear,110,2012-11-30 12:00:00
2:00 PM,80.6,64.4,58,30.01,-9999.0,ESE,5.8,-,N/A,,Clear,110,2012-11-30 12:00:00
3:00 PM,80.6,64.4,58,29.98,-9999.0,ESE,6.9,-,N/A,,Clear,110,2012-11-30 13:00:00
5:00 PM,77.0,66.2,69,30.01,-9999.0,East,3.5,-,N/A,,Clear,90,2012-11-30 15:00:00
6:00 PM,75.2,64.4,69,30.04,-9999.0,Calm,Calm,-,N/A,,Clear,0,2012-11-30 16:00:00
7:00 PM,73.4,62.6,69,30.04,-9999.0,Calm,Calm,-,N/A,,Clear,0,2012-11-30 17:00:00
8:00 PM,70,62,69,30.05,6,Calm,Calm,,,,Clear,,2012-11-30 18:00:00
8:00 PM,69.8,62.6,78,30.04,-9999.0,Calm,Calm,-,N/A,,Clear,0,2012-11-30 18:00:00
9:00 PM,68.0,62.6,83,30.04,-9999.0,Calm,Calm,-,N/A,,Clear,0,2012-11-30 19:00:00
10:00 PM,68.0,62.6,83,30.04,-9999.0,Calm,Calm,-,N/A,,Clear,0,2012-11-30 20:00:00
11:00 PM,66.2,60.8,83,30.04,-9999.0,Calm,Calm,-,N/A,,Clear,0,2012-11-30 21:00:00